Location: Ciula Mare
(45.6000°N, 22.8167°E)
Time: 10:52:20
(UTC+00:00)

IRIDIUM 103 - Pass Details

Date: 03 February 2023
Orbit: 776 x 779 km, 86.4° (Epoch: 30 March)

Event Time Altitude Azimuth Distance (km) Brightness Sun altitude
Rises 17:08:08 0° 358° (N) 3,273 7.5 -16.1°
Reaches altitude 10° 17:10:31 10° 1° (N) 2,341 6.7 -16.5°
Maximum altitude 17:15:44 71° 85° (E) 825 4.2 -17.4°
Drops below altitude 10° 17:20:56 10° 170° (S) 2,322 6.7 -18.3°
Sets 17:23:17 0° 172° (S) 3,245 7.5 -18.7°
